Weather in Vodny

Russia / Komi Republic     63°30′15″N   53°24′30″E
temp.,
°C
wind,
m/s
gust,
m/s
humid.,
%
clouds,
%
prec.,
mm/h
press.,
hPa
HPBL,
m
13 may, thu
thu1300:00+15n2378100 0.0 102471
03:00+14ne239069 0.0 102574
06:00+15ese23775 0.0 1025347
09:00+21ssw24547 0.0 1024819
12:00+25sw46365 0.0 10222001
15:00+26wsw47310 0.0 10202281
18:00+24wsw48330 0.0 1019647
21:00+18sw39510 0.0 1019168
14 may, fri
fri1400:00+16sw39617 0.0 1018160
03:00+16sw396664 0.0 1018176
06:00+19wsw395738 0.0 1017356
09:00+22wsw4847100 0.0 1016816
12:00+22sw464888 0.0 10151034
15:00+21sw385795 0.7 1012435
18:00+19w5107385 3.1 1011932
21:00+16w4128056 3.4 1013702
15 may, sat
sat1500:00+14wsw3891100 0.0 1013268
03:00+13wsw310915 0.1 1013304
06:00+16wsw3677100 0.1 1014319
09:00+19wsw355742 0.1 1014951
12:00+22w5740100 0.0 10142347
15:00+21w4839100 0.0 10141896
18:00+19sw245378 0.0 1013342
21:00+15e1379100 0.2 1013113
16 may, sun
sun1600:00+13e2488100 0.0 101298
03:00+13ese1389100 0.0 1010111
06:00+15sse2790100 0.1 1009410
09:00+19ssw5970100 0.5 10061198
12:00+24wsw6124337 0.1 10052409
15:00+23wsw5124157 0.1 10032067
18:00+21wsw4104219 0.0 10031206
21:00+16wsw311708 1.9 1004467
17 may, mon
mon1700:00+15wsw5107769 0.0 1003773
03:00+10wnw4883100 0.1 1006829
06:00+8nnw5884100 0.0 1010747
09:00+7n4875100 0.0 1014664
12:00+12nne56499 0.0 10161290
15:00+13nne46355 0.0 10181558
18:00+12nne45336 0.0 10201440
21:00+7nne25455 0.0 1022115